Weather observations for the past three days for
San Jose, San Jose International Airport
| Date | Time (pdt) | Wind (mph) | Vis. (mi.) | Weather | Sky Cond. | Temperature (ºF) | Relative Humidity | Wind Chill (°F) | Heat Index (°F) | Pressure | Precipitation (in) | ||||||
|---|---|---|---|---|---|---|---|---|---|---|---|---|---|---|---|---|---|
| Air | Dwpt | 6 hour | altimeter (in) | sea level (mb) | 1 hr | 3 hr | 6 hr | ||||||||||
| Max. | Min. | ||||||||||||||||
| 10 | 06:53 | N 6 | 10.00 | Overcast | OVC012 | 55.9 | 51.1 | 84% | 29.99 | 1015.4 | |||||||
| 10 | 05:53 | NW 7 | 10.00 | Overcast | OVC011 | 55.9 | 51.1 | 84% | 29.98 | 1015.1 | |||||||
| 10 | 04:53 | N 7 | 10.00 | Overcast | OVC012 | 55.9 | 51.1 | 57 | 55.9 | 84% | 29.98 | 1015.2 | |||||
| 10 | 03:53 | NW 6 | 10.00 | Overcast | OVC012 | 55.9 | 51.1 | 84% | 29.98 | 1015.1 | |||||||
| 10 | 02:53 | NW 6 | 10.00 | Overcast | OVC012 | 57 | 52 | 83% | 29.98 | 1015.1 | |||||||
| 10 | 01:53 | N 6 | 10.00 | Overcast | OVC012 | 57 | 51.1 | 81% | 29.98 | 1015.2 | |||||||
| 10 | 00:53 | N 7 | 10.00 | Overcast | OVC011 | 57 | 52 | 83% | 29.98 | 1015.3 | |||||||
| 09 | 23:53 | N 7 | 10.00 | Overcast | OVC011 | 57 | 52 | 83% | 29.98 | 1015.3 | |||||||
| 09 | 22:53 | N 6 | 10.00 | Partly Cloudy | FEW013 SCT050 | 55.9 | 51.1 | 68 | 55.9 | 84% | 29.99 | 1015.3 | |||||
| 09 | 21:53 | N 9 | 10.00 | A Few Clouds | FEW013 | 57 | 52 | 83% | 29.98 | 1015.2 | |||||||
| 09 | 20:53 | N 10 | 10.00 | A Few Clouds | FEW013 | 57.9 | 52 | 81% | 29.97 | 1014.8 | |||||||
| 09 | 19:53 | NW 13 | 10.00 | A Few Clouds | FEW013 FEW160 | 60.1 | 52 | 75% | 29.95 | 1014.2 | |||||||
| 09 | 18:53 | N 14 | 10.00 | A Few Clouds | FEW160 | 63 | 53.1 | 70% | 29.95 | 1014.2 | |||||||
| 09 | 17:53 | N 12 | 10.00 | A Few Clouds | FEW160 | 66 | 54 | 65% | 29.95 | 1014.0 | |||||||
| 09 | 16:53 | NW 16 | 10.00 | A Few Clouds | FEW140 | 68 | 54 | 72 | 64.9 | 61% | 29.95 | 1014.0 | |||||
| 09 | 15:53 | N 17 | 10.00 | A Few Clouds | FEW140 | 70 | 54 | 57% | 29.95 | 1014.0 | |||||||
| 09 | 14:53 | NW 18 | 10.00 | A Few Clouds | FEW140 | 70 | 54 | 57% | 29.96 | 1014.3 | |||||||
| 09 | 13:53 | NW 12 | 10.00 | A Few Clouds | FEW160 | 72 | 55 | 55% | 29.97 | 1014.7 | |||||||
| 09 | 12:53 | NW 10 | 10.00 | A Few Clouds | FEW080 | 71.1 | 54 | 55% | 29.98 | 1015.0 | |||||||
| 09 | 11:53 | Vrbl 6 | 10.00 | A Few Clouds | FEW070 | 69.1 | 51.1 | 53% | 29.99 | 1015.6 | |||||||
| 09 | 10:53 | Vrbl 3 | 10.00 | A Few Clouds | FEW070 | 64.9 | 52 | 64.9 | 54 | 63% | 30 | 1015.9 | |||||
| 09 | 09:53 | Calm | 10.00 | Fair | CLR | 61 | 50 | 67% | 30.01 | 1016.0 | |||||||
| 09 | 08:53 | NE 3 | 9.00 | A Few Clouds | FEW023 | 59 | 50 | 72% | 30.01 | 1016.2 | |||||||
| 09 | 07:53 | Calm | 9.00 | Mostly Cloudy | SCT012 BKN023 | 55.9 | 51.1 | 84% | 30.01 | 1016.1 | |||||||
| 09 | 06:53 | E 3 | 8.00 | Mostly Cloudy | SCT012 BKN020 | 54 | 48.9 | 83% | 30 | 1015.9 | |||||||
| 09 | 05:53 | N 3 | 10.00 | Mostly Cloudy | SCT012 BKN020 | 54 | 48.9 | 83% | 30 | 1015.8 | |||||||
| 09 | 04:53 | N 3 | 10.00 | Overcast | OVC012 | 54 | 48.9 | 55.9 | 52 | 83% | 30 | 1015.8 | |||||
| 09 | 03:53 | Calm | 9.00 | A Few Clouds | FEW014 | 53.1 | 48.9 | 86% | 30 | 1015.8 | |||||||
| 09 | 02:53 | Calm | 10.00 | Fair | CLR | 54 | 50 | 87% | 30.01 | 1016.0 | |||||||
| 09 | 01:53 | E 3 | 10.00 | Fair | CLR | 54 | 50 | 87% | 30.02 | 1016.4 | |||||||
| 09 | 00:53 | N 3 | 10.00 | Fair | CLR | 54 | 50 | 87% | 30.03 | 1016.7 | |||||||
| 08 | 23:53 | N 5 | 10.00 | Fair | CLR | 55 | 50 | 83% | 30.03 | 1016.9 | |||||||
| 08 | 22:53 | N 6 | 10.00 | Fair | CLR | 55 | 50 | 66.9 | 55 | 83% | 30.04 | 1017.1 | |||||
| 08 | 21:53 | N 7 | 10.00 | Fair | CLR | 55.9 | 50 | 81% | 30.04 | 1017.1 | |||||||
| 08 | 20:53 | N 12 | 10.00 | Fair | CLR | 57 | 50 | 78% | 30.03 | 1016.7 | |||||||
| 08 | 19:53 | NW 12 | 10.00 | Fair | CLR | 59 | 51.1 | 75% | 30.01 | 1016.3 | |||||||
| 08 | 18:53 | NW 13 | 10.00 | Fair | CLR | 63 | 52 | 68% | 30.01 | 1016.2 | |||||||
| 08 | 17:53 | NW 14 | 10.00 | Fair | CLR | 64.9 | 52 | 63% | 30.01 | 1016.2 | |||||||
| 08 | 16:53 | NW 14 | 10.00 | A Few Clouds | FEW160 | 66 | 53.1 | 68 | 61 | 63% | 30.02 | 1016.4 | |||||
| 08 | 15:53 | NW 12 | 10.00 | Fair | CLR | 66.9 | 53.1 | 61% | 30.03 | 1016.9 | |||||||
| 08 | 14:53 | NW 13 | 10.00 | Fair | CLR | 66.9 | 53.1 | 61% | 30.06 | 1017.7 | |||||||
| 08 | 13:53 | NW 10 | 10.00 | A Few Clouds | FEW013 FEW075 | 66.9 | 54 | 63% | 30.07 | 1018.3 | |||||||
| 08 | 12:53 | NW 12 | 10.00 | A Few Clouds | FEW013 FEW075 | 66.9 | 52 | 59% | 30.09 | 1018.7 | |||||||
| 08 | 11:53 | N 8 G 17 | 10.00 | A Few Clouds | FEW011 FEW090 | 64 | 50 | 60% | 30.1 | 1019.2 | |||||||
| 08 | 10:53 | N 9 | 10.00 | A Few Clouds | FEW011 FEW090 | 61 | 48.9 | 62.1 | 54 | 65% | 30.11 | 1019.5 | |||||
| 08 | 09:53 | Vrbl 7 | 10.00 | A Few Clouds | FEW010 FEW035 FEW090 | 59 | 48 | 67% | 30.11 | 1019.4 | |||||||
| 08 | 08:53 | NW 5 | 10.00 | Mostly Cloudy | FEW009 BKN015 BKN017 | 55.9 | 48 | 75% | 30.11 | 1019.6 | |||||||
| 08 | 07:53 | W 8 | 10.00 | Overcast | FEW009 BKN015 OVC017 | 55 | 48 | 77% | 30.11 | 1019.7 | |||||||
| 08 | 06:53 | NW 6 | 10.00 | Overcast | FEW009 BKN015 OVC017 | 54 | 46.9 | 77% | 30.1 | 1019.1 | |||||||
| 08 | 05:53 | N 6 | 10.00 | Overcast | OVC014 | 54 | 48 | 80% | 30.09 | 1018.8 | |||||||
| 08 | 04:53 | N 7 | 10.00 | Overcast | OVC013 | 55 | 48.9 | 55.9 | 55 | 80% | 30.09 | 1018.8 | |||||
| 08 | 03:53 | N 8 | 10.00 | Overcast | OVC012 | 55 | 50 | 83% | 30.08 | 1018.6 | |||||||
| 08 | 02:53 | N 5 | 10.00 | Overcast | OVC012 | 55 | 50 | 83% | 30.08 | 1018.5 | |||||||
| 08 | 01:53 | NW 6 | 10.00 | Overcast | OVC012 | 55 | 50 | 83% | 30.08 | 1018.6 | |||||||
| 08 | 00:53 | NW 9 | 10.00 | Overcast | OVC012 | 55.9 | 50 | 81% | 30.09 | 1018.7 | |||||||
| 07 | 23:53 | N 10 | 10.00 | Overcast | OVC009 | 55.9 | 51.1 | 84% | 30.08 | 1018.6 | |||||||
| 07 | 22:53 | N 8 | 10.00 | Mostly Cloudy | FEW011 BKN040 | 55.9 | 52 | 68 | 55 | 87% | 30.08 | 1018.5 | |||||
| 07 | 21:53 | NW 12 | 10.00 | Partly Cloudy | FEW011 SCT040 | 55.9 | 52 | 87% | 30.08 | 1018.4 | |||||||
| 07 | 20:53 | N 10 | 10.00 | Partly Cloudy | SCT050 | 57 | 53.1 | 87% | 30.05 | 1017.6 | |||||||
| 07 | 19:53 | NW 12 | 10.00 | A Few Clouds | FEW050 | 59 | 52 | 78% | 30.04 | 1017.0 | |||||||
| 07 | 18:53 | NW 14 | 10.00 | Fair | CLR | 62.1 | 52 | 70% | 30.03 | 1016.8 | |||||||
| 07 | 17:53 | NW 15 | 10.00 | A Few Clouds | FEW028 FEW045 | 66 | 54 | 65% | 30.03 | 1016.7 | |||||||
| 07 | 16:53 | NW 15 | 10.00 | A Few Clouds | FEW022 FEW045 | 68 | 55 | 70 | 59 | 63% | 30.02 | 1016.5 | |||||
| 07 | 15:53 | NW 10 | 10.00 | A Few Clouds | FEW020 FEW035 | 70 | 55 | 59% | 30.03 | 1016.7 | |||||||
| 07 | 14:53 | NW 12 | 10.00 | A Few Clouds | FEW022 FEW035 | 69.1 | 55 | 61% | 30.05 | 1017.3 | |||||||
| 07 | 13:53 | N 7 | 10.00 | A Few Clouds | FEW014 FEW035 | 68 | 54 | 61% | 30.07 | 1018.0 | |||||||
| 07 | 12:53 | W 6 | 10.00 | A Few Clouds | FEW007 FEW014 FEW028 | 63 | 54 | 73% | 30.09 | 1018.7 | |||||||
| 07 | 11:53 | NW 7 | 10.00 | Overcast | FEW012 BKN014 OVC025 | 60.1 | 53.1 | 78% | 30.11 | 1019.5 | |||||||
| 07 | 10:53 | NW 7 | 10.00 | Overcast | OVC011 | 57.9 | 53.1 | 59 | 55.9 | 84% | 30.11 | 1019.6 | |||||
| 07 | 09:53 | N 6 | 10.00 | Overcast | OVC009 | 57 | 52 | 83% | 30.11 | 1019.5 | |||||||
| 07 | 08:53 | N 6 | 10.00 | Overcast | OVC009 | 55.9 | 52 | 87% | 30.11 | 1019.5 | |||||||
| 07 | 07:53 | N 5 | 10.00 | Overcast | OVC008 | 55.9 | 52 | 87% | 30.11 | 1019.5 | |||||||
| Date | Time (pdt) | Wind (mph) | Vis. (mi.) | Weather | Sky Cond. | Air | Dwpt | Max. | Min. | Relative Humidity | Wind Chill (°F) | Heat Index (°F) | altimeter (in) | sea level (mb) | 1 hr | 3 hr | 6 hr |
| 6 hour | |||||||||||||||||
| Temperature (ºF) | Pressure | Precipitation (in) | |||||||||||||||